User: anonymous   Login
Location: Unspecified
(0.0000°N, 0.0000°E)
Time: 23:39:05
(UTC+01:00)
Language:

Iridium 75 - Orbit

View from above orbital plane
View from above orbital plane
View from above satellite
View from above satellite

Ground track
Ground track

The orbit data is extracted from the following two-line orbital elements,

1 25346U 98032E   17324.48236706 -.00000021  00000-0 -14504-4 0  9998
2 25346  86.3963 158.8371 0001870  85.2525 274.8884 14.34220968 22074
Epoch (UTC): 20 November 2017 11:34:36
Eccentricity: 0.0001870
inclination: 86.3963°
perigee height: 776 km
apogee height: 779 km
right ascension of ascending node: 158.8371°
argument of perigee: 85.2525°
revolutions per day: 14.34220968
mean anomaly at epoch: 274.8884°
orbit number at epoch: 2207

The dashed part of the orbit path shows where the satellite is in the earth's shadow,  

DLR